STARLINK-32539, 62022

Orbit data source: Space-Track

STARLINK-32539, 62022 is a payload satellite owned by SpaceX/Seattle (US) in LEO that was launched on Mon, 18 Nov 2024 UTC via an FALCON 9 launch vehicle from the Air Force Western Test Range (AFWTR). Payload-class satellites include a variety of spacecraft equipped with specific instruments for various scientific and technological missions. These include communications satellites like Starlink; space stations such as the ISS; scientific satellites like the Hubble; Earth observation satellites from companies like Planet Labs, Umbra, and HawkEye 360; GPS; miniature CubeSats for education and research; and military/defense satellites.

Loading next visibility...
Identifier
62022, 2024-213Q
Orbit
LEO
Country
Flag of USUS
Related business
Manufacturer
SpaceX/Seattle
Mission
Operational Commercial Communications
Bus & Motor
STARLINK V2M, Unknown motor
Mass
730 kg wet, ~700 kg dry
Launch date (UTC)
2024-11-18 (1 year ago)
Launch vehicle
FALCON 9
Launch site
Air Force Western Test Range (AFWTR)
Object type
Payload
Rocket body
Debris
Shape & HBR
Box + 2 Pan, 17.7 m
Radar Cross Section
33.884 m², Large (>1 m²)

Expand to show TLE details & history
Last TLE update: 19 hours ago

TLE from 19 hours ago
0 STARLINK-32539
1 62022U 24213Q   26127.04929463  .00017043  00000-0  58635-3 0  9994
2 62022  53.1603 244.5323 0001179  79.2543 280.8590 15.30192217 82264
Epoch: 2026-05-07T01:10Z
TLE epoch observation values (Epoch: 2026-05-07T01:10:59.056Z)
Latitude
-0.00004°
Longitude
1.88519°
Altitude
475.986 km
Speed
7.629 km/s
True Right ascension
16h 18m 07s
True Declination
0° 00' 00"
Sunlit
Object was in full shadow at epoch
Visualization orbit readout
Latitude
Unknown
Longitude
Unknown
Altitude
Unknown
Speed
Unknown
Apparent Right ascension
Unknown
Apparent Declination
Unknown
Sunlit
N/A
Visualization observer readout
Local Sidereal Time
04:07:37
Azimuth
Unknown
Elevation
Unknown
Doppler factor
Unknown
Orbital elements
Apogee altitude
476.303 km
Perigee altitude
474.687 km
Semi-major axis
6,853.632 km
Eccentricity
0.00012
Inclination
53.1603°
RAAN
244.5323°
Arg. of periapsis
79.2543°
True anomaly
280.84573°
Mean anomaly
280.859°
Eccentric anomaly
280.85237°
Mean motion
3.82527 °/min
Orbital period
94.11 mins
BSTAR
0.00058635
Loading maneuver chart data...
Computing Atmospheric mass density...
Loading historical data...
Loading historical data...
Loading historical data...
Loading historical data...
Loading historical data...
Loading historical data...
Loading historical data...

Documentation

Showing up to 5 results
|